Regional Weather Roundup
Issued by NWS

Home | Current Version | Previous Version | Graphics & Text | Print | Product List | Glossary On
Versions: 1 2 3 4 5 6 7 8 9 10 11 12 13 14 15 16 17 18 19 20 21 22 23 24 25 26 27 28 29 30 31 32 33 34 35 36 37 38 39 40 41 42 43 44 45 46 47 48 49 50
000
ASUS43 KFSD 180302
RWRSD

WEATHER ROUNDUP FOR SOUTH DAKOTA
NATIONAL WEATHER SERVICE SIOUX FALLS SD
900 PM CST WED DEC 17 2014

NOTE: "FAIR" INDICATES FEW OR NO CLOUDS BELOW 12,000 FEET WITH NO
SIGNIFICANT WEATHER AND/OR OBSTRUCTIONS TO VISIBILITY.


SDZ001>005-009-010-012>017-180400-
NORTHWEST AND NORTH CENTRAL SOUTH DAKOTA

CITY           SKY/WX    TMP DP  RH WIND       PRES   REMARKS
BUFFALO          N/A     20  17  88 SE9       29.93F WCI   9
FAITH            N/A     20  15  81 SE12      30.06F WCI   8
MOBRIDGE       CLOUDY    18  11  74 SE10      30.16S WCI   6
$$

SDZ012>016-024>037-041>051-057-063-072>074-180400-
SOUTHWEST AND SOUTH CENTRAL SOUTH DAKOTA

CITY           SKY/WX    TMP DP  RH WIND       PRES   REMARKS
RAPID CTY ARPT CLOUDY    23  20  88 SE3       30.01F
PIERRE         CLOUDY    18  15  88 SE13      30.17S WCI   5
CUSTER         CLEAR     19  15  84 CALM      29.89S
ELLSWORTH AFB  CLOUDY    22  20  94 E2        30.00F
PHILIP         CLOUDY    21  18  88 E9        30.08F WCI  11
PINE RIDGE     MOCLDY    17  14  88 CALM      30.01S
WINNER         CLOUDY    22  18  85 SE12      30.15S WCI  10
$$

SDZ004>011-016>023-039-040-180400-
NORTHEAST SOUTH DAKOTA

CITY           SKY/WX    TMP DP  RH WIND       PRES   REMARKS
ABERDEEN       MOCLDY    11   6  81 CALM      30.26F
WATERTOWN      PTCLDY     7   4  87 CALM      30.22F
SISSETON         N/A      1  -3  83 CALM      30.28F
$$

SDZ017-020-022-023-036>040-048>070-180400-
SOUTHEAST SOUTH DAKOTA

CITY           SKY/WX    TMP DP  RH WIND       PRES   REMARKS
SIOUX FALLS    PTCLDY     9   7  92 CALM      30.25R
HURON          PTCLDY     9   6  88 CALM      30.26R
MITCHELL       PTCLDY    12   9  87 SE3       30.26S
YANKTON        MOCLDY    12   9  85 CALM      30.27S
$$

ABBREVIATIONS USED IN REMARKS
   TC - TEMPERATURE IN CELSIUS
  WCI - WIND CHILL INDEX
   HX - HEAT INDEX
  VSB - VISIBILITY



USA.gov is the U.S. government's official web portal to all federal, state and local government web resources and services.